Flag for U.S.A. Weather past 2 weeks in Daytona Beach, Florida, U.S.A.

Now
79 °F

Thunderstorms. Broken clouds.


Feels Like: 82 °F
Forecast: 74 / 88 °F
Wind: 6 mph from South

Location: Daytona Beach Regional Airport

Current Time: Jul 4, 2015 at 6:59:41 PM

Latest Report: Jul 4, 2015 at 5:53 PM


Visibility: 10 mi

Pressure: 30.11 "Hg

Humidity: 74%

Dew point: 70 °F

Location of Daytona BeachLocation

Historic Weather in Daytona Beach — Graph

°F

Daytona Beach temperature yesterday

Maximum temperature yesterday: 91 °F (at 1:53 PM)
Minimum temperature yesterday: 71 °F (at 3:53 AM)
Average temperature yesterday: 81 °F

Past Weeks' High & Low Weather Summary

 TemperatureHumidityPressure
High95 °F (Jun 21, 2:53 PM)97% (Jun 24, 6:53 AM)30.17 "Hg (Jun 24, 6:53 AM)
Low71 °F (Jul 3, 3:53 AM)38% (Jun 28, 3:53 PM)29.95 "Hg (Jun 27, 4:53 PM)
Average81 °F76%30.08 "Hg
* Reported Jun 19 5:53 PM — Jul 4 5:53 PM, Daytona Beach, Weather by CustomWeather, © 2015

Note: Actual official high and low records may vary slightly from our data, if they occured in-between our weather recording intervals... More about our weather records

Advertising

Daytona Beach weather history for previous 24 hours

 ConditionsComfort  
Time TempWeatherWind HumidityBarometerVisibility
5:53 PM
Sat, Jul 4
79 °FThunderstorms. Broken clouds.6 mph74%30.11 "Hg10 mi
4:53 PM84 °FThunderstorms. Scattered clouds.6 mph70%30.11 "Hg10 mi
3:53 PM88 °FPassing clouds.8 mph63%30.10 "Hg10 mi
2:53 PM89 °FPassing clouds.10 mph55%30.11 "Hg10 mi
1:53 PM88 °FScattered clouds.9 mph55%30.11 "Hg10 mi
12:53 PM90 °FScattered clouds.N/A50%30.14 "Hg9 mi
11:53 AM84 °FScattered clouds.7 mph70%30.14 "Hg9 mi
10:53 AM85 °FPartly sunny.10 mph70%30.14 "Hg10 mi
9:53 AM82 °FBroken clouds.5 mph67%30.14 "Hg10 mi
8:53 AM79 °FPartly sunny.3 mph74%30.14 "Hg10 mi
7:53 AM76 °FBroken clouds.3 mph82%30.13 "Hg8 mi
6:53 AM72 °FPartly cloudy.No wind91%30.11 "Hg8 mi
5:53 AM72 °FPartly cloudy.3 mph87%30.10 "Hg10 mi
4:53 AM73 °FOvercast.3 mph84%30.09 "Hg10 mi
3:53 AM74 °FHigh level clouds.No wind85%30.08 "Hg10 mi
2:53 AM74 °FOvercast.3 mph82%30.08 "Hg10 mi
1:53 AM75 °FHigh level clouds.3 mph82%30.09 "Hg10 mi
12:53 AM76 °FHigh level clouds.6 mph82%30.10 "Hg10 mi
11:53 PM
Fri, Jul 3
79 °FHigh level clouds.7 mph74%30.11 "Hg10 mi
10:53 PM80 °FHigh level clouds.6 mph74%30.11 "Hg10 mi
9:53 PM82 °FPassing clouds.8 mph74%30.11 "Hg10 mi
8:53 PM83 °FScattered clouds.6 mph70%30.08 "Hg10 mi
7:53 PM85 °FPassing clouds.6 mph57%30.05 "Hg10 mi
6:53 PM86 °FScattered clouds.8 mph59%30.06 "Hg10 mi
Weather by CustomWeather, © 2015

See weather overviewHow to use our weather pages